SIA227 WSSS-YMML

Flight info

Callsign SIA227
Flight time N/A
Altitude 35000
Route ANITO B470 PKP L895 SAPDA A585 OSOTO/N0489F370 A585 AD V255 BENDO Y12 ARBEY
Aircraft B77W/H-SDE1E2E3FGHIJ4J5M1P2RWXYZ/LB1D1

Departure

Time 2026-05-01 14:59
Airport Singapore Changi Airport (WSSS)

Arrival

Time N/A
Airport Melbourne Airport (YMML)
Time Latitude Longitude Altitude Speed Heading
2026-05-01 14:02 1.35105 103.98314 34 ft 0 kts 112°
2026-05-01 14:40 1.35105 103.98313 34 ft 0 kts 112°
2026-05-01 14:41 1.35111 103.98301 34 ft 2 kts 112°
2026-05-01 14:41 1.35116 103.98286 34 ft 2 kts 112°
2026-05-01 14:41 1.35123 103.98274 34 ft 2 kts 130°
2026-05-01 14:41 1.35134 103.98264 34 ft 2 kts 149°
2026-05-01 14:42 1.35148 103.98257 34 ft 2 kts 165°
2026-05-01 14:42 1.35162 103.98255 34 ft 2 kts 182°
2026-05-01 14:42 1.35177 103.98257 34 ft 2 kts 199°
2026-05-01 14:42 1.35191 103.98263 34 ft 2 kts 206°
2026-05-01 14:43 1.35204 103.98270 34 ft 2 kts 204°
2026-05-01 14:43 1.35211 103.98272 34 ft 0 kts 202°
2026-05-01 14:46 1.35210 103.98272 34 ft 0 kts 202°
2026-05-01 14:46 1.35203 103.98269 34 ft 1 kts 202°
2026-05-01 14:47 1.35187 103.98262 34 ft 3 kts 202°
2026-05-01 14:47 1.35160 103.98251 34 ft 5 kts 208°
2026-05-01 14:47 1.35131 103.98222 34 ft 6 kts 239°
2026-05-01 14:48 1.35074 103.98122 34 ft 9 kts 224°
2026-05-01 14:48 1.35008 103.98088 34 ft 11 kts 202°
2026-05-01 14:48 1.34856 103.98024 34 ft 10 kts 203°
2026-05-01 14:49 1.34729 103.97981 34 ft 8 kts 163°
2026-05-01 14:49 1.34672 103.98076 34 ft 8 kts 112°
2026-05-01 14:50 1.34649 103.98130 38 ft 1 kts 113°
2026-05-01 14:50 1.34606 103.98232 48 ft 7 kts 113°
2026-05-01 14:51 1.34585 103.98279 52 ft 7 kts 114°
2026-05-01 14:51 1.34556 103.98345 53 ft 5 kts 114°
2026-05-01 14:52 1.34516 103.98434 52 ft 10 kts 113°
2026-05-01 14:52 1.34483 103.98511 47 ft 12 kts 113°
2026-05-01 14:52 1.34430 103.98637 34 ft 10 kts 112°
2026-05-01 14:53 1.34400 103.98708 34 ft 11 kts 113°
2026-05-01 14:53 1.34365 103.98789 34 ft 13 kts 113°
2026-05-01 14:53 1.34330 103.98868 34 ft 10 kts 117°
2026-05-01 14:53 1.34271 103.98891 34 ft 10 kts 197°
2026-05-01 14:54 1.34194 103.98861 34 ft 13 kts 201°
2026-05-01 14:54 1.34098 103.98820 34 ft 16 kts 203°
2026-05-01 14:54 1.33984 103.98772 34 ft 18 kts 201°
2026-05-01 14:54 1.33857 103.98718 34 ft 20 kts 204°
2026-05-01 14:55 1.33725 103.98662 34 ft 20 kts 202°
2026-05-01 14:55 1.33595 103.98608 34 ft 19 kts 203°
2026-05-01 14:55 1.33469 103.98553 34 ft 19 kts 202°
2026-05-01 14:55 1.33344 103.98502 34 ft 19 kts 203°
2026-05-01 14:56 1.33222 103.98450 34 ft 18 kts 203°
2026-05-01 14:56 1.33113 103.98404 34 ft 14 kts 203°
2026-05-01 14:56 1.33029 103.98368 34 ft 11 kts 202°
2026-05-01 14:56 1.32958 103.98367 34 ft 9 kts 145°
2026-05-01 14:57 1.32926 103.98422 34 ft 8 kts 114°
2026-05-01 14:57 1.32928 103.98519 34 ft 7 kts 27°
2026-05-01 14:57 1.32975 103.98540 34 ft 9 kts 23°
2026-05-01 14:58 1.33119 103.98601 34 ft 49 kts 23°
2026-05-01 14:58 1.33650 103.98825 34 ft 114 kts 23°
2026-05-01 14:58 1.34556 103.99207 35 ft 167 kts 23°
2026-05-01 14:58 1.35681 103.99686 488 ft 177 kts 22°
2026-05-01 14:59 1.36823 104.00190 1167 ft 182 kts 22°
2026-05-01 14:59 1.37964 104.00673 1740 ft 178 kts 22°
2026-05-01 14:59 1.39142 104.01147 2074 ft 188 kts 20°
2026-05-01 14:59 1.40366 104.01632 2560 ft 188 kts 22°
2026-05-01 15:00 1.42830 104.02644 3400 ft 197 kts 22°
2026-05-01 15:00 1.44090 104.03181 3846 ft 200 kts 24°
2026-05-01 15:00 1.45385 104.03776 4204 ft 208 kts 25°
2026-05-01 15:01 1.46677 104.04542 4481 ft 221 kts 41°
2026-05-01 15:01 1.47648 104.05708 4931 ft 223 kts 62°
2026-05-01 15:01 1.48195 104.07175 5329 ft 229 kts 81°
2026-05-01 15:01 1.48205 104.08791 5705 ft 239 kts 101°
2026-05-01 15:02 1.47560 104.10377 5925 ft 257 kts 127°
2026-05-01 15:02 1.46808 104.11334 6094 ft 269 kts 126°
2026-05-01 15:02 1.45511 104.13522 6720 ft 279 kts 116°
2026-05-01 15:02 1.44663 104.15279 7310 ft 282 kts 115°
2026-05-01 15:03 1.43835 104.17052 7876 ft 285 kts 115°
2026-05-01 15:03 1.43002 104.18848 8428 ft 288 kts 114°
2026-05-01 15:03 1.42150 104.20694 8982 ft 291 kts 114°
2026-05-01 15:03 1.41306 104.22522 9518 ft 293 kts 114°
2026-05-01 15:04 1.40445 104.24386 10050 ft 296 kts 114°
2026-05-01 15:04 1.39576 104.26263 10365 ft 307 kts 114°
2026-05-01 15:04 1.38651 104.28265 10578 ft 323 kts 114°
2026-05-01 15:04 1.37690 104.30341 10822 ft 338 kts 114°
2026-05-01 15:05 1.36690 104.32503 11081 ft 352 kts 114°
2026-05-01 15:05 1.35626 104.34789 11360 ft 365 kts 116°
2026-05-01 15:05 1.34293 104.36973 11630 ft 379 kts 126°
2026-05-01 15:05 1.32512 104.38947 11945 ft 390 kts 137°
2026-05-01 15:06 1.30293 104.40597 12452 ft 396 kts 148°
2026-05-01 15:06 1.27790 104.41778 13014 ft 400 kts 160°
2026-05-01 15:06 1.25097 104.42554 13597 ft 405 kts 164°
2026-05-01 15:06 1.22381 104.43250 14190 ft 408 kts 164°
2026-05-01 15:07 1.19591 104.43962 14798 ft 412 kts 164°
2026-05-01 15:07 1.16786 104.44681 15410 ft 417 kts 164°
2026-05-01 15:07 1.13964 104.45405 16020 ft 421 kts 164°
2026-05-01 15:07 1.11131 104.46130 16603 ft 424 kts 164°
2026-05-01 15:08 1.08242 104.46912 17177 ft 428 kts 162°
2026-05-01 15:08 1.05349 104.47720 17736 ft 432 kts 162°
2026-05-01 15:08 1.02437 104.48534 18277 ft 436 kts 162°
2026-05-01 15:08 0.99521 104.49347 18807 ft 439 kts 162°
2026-05-01 15:09 0.96563 104.50172 19336 ft 443 kts 162°
2026-05-01 15:09 0.93582 104.51002 19849 ft 446 kts 162°
2026-05-01 15:09 0.90579 104.51838 20351 ft 449 kts 162°
2026-05-01 15:09 0.87527 104.52687 20841 ft 452 kts 162°
2026-05-01 15:10 0.84502 104.53528 21307 ft 455 kts 162°
2026-05-01 15:10 0.78335 104.55242 22213 ft 461 kts 162°
2026-05-01 15:10 0.75228 104.56106 22643 ft 463 kts 162°
2026-05-01 15:11 0.72125 104.56969 23057 ft 466 kts 162°
2026-05-01 15:11 0.65798 104.58727 23898 ft 472 kts 162°
2026-05-01 15:11 0.62638 104.59647 24316 ft 474 kts 161°
2026-05-01 15:12 0.59461 104.60597 24721 ft 478 kts 161°
2026-05-01 15:12 0.53043 104.62515 25543 ft 484 kts 161°
2026-05-01 15:12 0.49810 104.63477 25942 ft 487 kts 161°
2026-05-01 15:13 0.39922 104.66415 27146 ft 497 kts 162°
2026-05-01 15:14 0.33275 104.68386 27953 ft 504 kts 162°
2026-05-01 15:14 0.29873 104.69394 28366 ft 507 kts 162°
2026-05-01 15:14 0.23063 104.71411 29212 ft 513 kts 162°
2026-05-01 15:15 0.16228 104.73435 30386 ft 510 kts 162°
2026-05-01 15:15 0.09426 104.75453 31640 ft 505 kts 162°
2026-05-01 15:16 0.02700 104.77451 32905 ft 502 kts 162°
2026-05-01 15:16 -0.03970 104.79431 34180 ft 497 kts 162°
2026-05-01 15:17 -0.10619 104.81406 35042 ft 498 kts 162°
2026-05-01 15:18 -0.20482 104.84334 35009 ft 485 kts 162°
2026-05-01 15:19 -0.32763 104.89671 34910 ft 483 kts 145°
2026-05-01 15:19 -0.41137 104.95329 34929 ft 485 kts 144°
2026-05-01 15:20 -0.49517 105.01000 34931 ft 484 kts 144°
2026-05-01 15:21 -0.55118 105.04789 34929 ft 484 kts 144°
2026-05-01 15:21 -0.60685 105.08556 34927 ft 484 kts 144°
2026-05-01 15:22 -0.69075 105.14233 34924 ft 484 kts 144°
2026-05-01 15:22 -0.74628 105.17990 34924 ft 484 kts 144°
2026-05-01 15:23 -0.80221 105.21776 34923 ft 484 kts 144°
2026-05-01 15:23 -0.85798 105.25550 34922 ft 484 kts 144°
2026-05-01 15:24 -0.91372 105.29323 34922 ft 484 kts 144°
2026-05-01 15:24 -0.96963 105.33106 34921 ft 484 kts 144°
2026-05-01 15:25 -1.02549 105.36887 34920 ft 484 kts 144°
2026-05-01 15:25 -1.08152 105.40681 34920 ft 484 kts 144°
2026-05-01 15:26 -1.13729 105.44455 34918 ft 484 kts 144°
2026-05-01 15:26 -1.19301 105.48226 34918 ft 484 kts 144°
2026-05-01 15:27 -1.24908 105.52022 34917 ft 484 kts 144°
2026-05-01 15:28 -1.33297 105.57703 34915 ft 484 kts 144°
2026-05-01 15:28 -1.38882 105.61484 34915 ft 484 kts 144°
2026-05-01 15:29 -1.47271 105.67163 34917 ft 484 kts 144°
2026-05-01 15:30 -1.58395 105.74696 34916 ft 484 kts 144°
2026-05-01 15:31 -1.75162 105.86051 34919 ft 484 kts 144°
2026-05-01 15:32 -1.86332 105.93619 34926 ft 484 kts 144°
2026-05-01 15:34 -2.03063 106.04954 34929 ft 484 kts 144°